This is the latest recevied weather packets stored in our database for station/object W7TTE. If no packets are shown the sender has not sent any weather packets the latest 10 day(s).
| Time | Temp. | Humidity | Pressure | Rain* | Wind** | Luminosity | Snow |
|---|---|---|---|---|---|---|---|
| 1777698186 | 24.44° C | 21% | 1012.3 hPa | 0 mm | - | 0 W/m² | - |
| 1777697884 | 25° C | 21% | 1012.3 hPa | 0 mm | - | 0 W/m² | - |
| 1777697580 | 25° C | 20% | 1012.1 hPa | 0 mm | - | 0 W/m² | - |
| 1777697277 | 25.56° C | 20% | 1012 hPa | 0 mm | - | 0 W/m² | - |
| 1777696974 | 25.56° C | 20% | 1011.9 hPa | 0 mm | - | 0 W/m² | - |
| 1777696671 | 25.56° C | 20% | 1011.9 hPa | 0 mm | - | 0 W/m² | - |
| 1777696368 | 25.56° C | 20% | 1011.9 hPa | 0 mm | - | 0 W/m² | - |
| 1777696067 | 26.11° C | 20% | 1011.9 hPa | 0 mm | - | 0 W/m² | - |
| 1777695765 | 26.11° C | 20% | 1011.7 hPa | 0 mm | - | 0 W/m² | - |
| 1777695463 | 26.11° C | 20% | 1011.8 hPa | 0 mm | - | 0 W/m² | - |
| 1777695160 | 26.11° C | 20% | 1011.7 hPa | 0 mm | - | 0 W/m² | - |
| 1777694857 | 26.11° C | 20% | 1011.6 hPa | 0 mm | - | 0 W/m² | - |
| 1777694554 | 26.11° C | 21% | 1011.6 hPa | 0 mm | - | 0 W/m² | - |
| 1777694249 | 26.11° C | 21% | 1011.5 hPa | 0 mm | - | 0 W/m² | - |
| 1777693947 | 26.11° C | 21% | 1011.5 hPa | 0 mm | - | 0 W/m² | - |
| 1777693644 | 26.11° C | 21% | 1011.4 hPa | 0 mm | - | 0 W/m² | - |
| 1777693342 | 26.11° C | 21% | 1011.2 hPa | 0 mm | - | 0 W/m² | - |
| 1777693040 | 26.67° C | 21% | 1011.4 hPa | 0 mm | - | 0 W/m² | - |
| 1777692738 | 26.67° C | 20% | 1011.2 hPa | 0 mm | - | 0 W/m² | - |
| 1777692434 | 27.22° C | 21% | 1011.1 hPa | 0 mm | - | 0 W/m² | - |
| 1777692129 | 26.67° C | 21% | 1011.2 hPa | 0 mm | - | 0 W/m² | - |
| 1777691828 | 26.67° C | 21% | 1011.2 hPa | 0 mm | - | 0 W/m² | - |
| 1777691525 | 27.22° C | 21% | 1011 hPa | 0 mm | - | 0 W/m² | - |
| 1777691224 | 27.78° C | 21% | 1010.8 hPa | 0 mm | - | 0 W/m² | - |
| 1777690921 | 27.78° C | 21% | 1010.9 hPa | 0 mm | - | 0 W/m² | - |
* Rain latest hour (hover to see other rain measurements)
** Current wind speed in m/s (hover to see current wind gust speed)